Regional Weather Roundup
Issued by NWS

Home | Current Version | Previous Version | Text Only | Print | Product List | Glossary Off
Versions: 1 2 3 4 5 6 7 8 9 10 11 12 13 14 15 16 17 18 19 20 21 22 23 24 25 26 27 28 29 30 31 32 33 34 35 36 37 38 39 40 41 42 43 44 45 46 47 48 49 50

000
ASUS43 KOAX 271310
RWRNE

WEATHER ROUNDUP FOR NEBRASKA
NATIONAL WEATHER SERVICE OMAHA NE
800 AM CDT MON JUL 27 2015

NOTES: SATELLITE DATA IS BEING USED TO AUGMENT CLOUD COVER ABOVE
       12000 FEET.
       "FAIR" INDICATES FEW OR NO CLOUDS BELOW 12,000 FEET WITH NO
       SIGNIFICANT WEATHER AND/OR OBSTRUCTIONS TO VISIBILITY.

  * THESE STATIONS DO NOT REPORT WEATHER SUCH AS RAIN...SNOW OR FOG.

NEZ001>004-019>022-054>056-271400-
NEBRASKA PANHANDLE

CITY           SKY/WX    TMP DP  RH WIND       PRES   REMARKS
SCOTTSBLUFF    MOSUNNY   61  60  97 SE12      29.89F FOG
ALLIANCE       MOSUNNY   59  57  93 E6        29.91R FOG
CHADRON        SUNNY     70  60  70 SE7       29.83F
KIMBALL        SUNNY     60  59  96 W6        29.94S
SIDNEY         SUNNY     63  62  97 S9        29.92F
$$

NEZ057>060-069>072-079>082-271400-
SOUTHWEST NEBRASKA

CITY           SKY/WX    TMP DP  RH WIND       PRES   REMARKS
NORTH PLATTE   MOSUNNY   66  63  90 CALM      29.90R
IMPERIAL       MOSUNNY   65  63  93 SE5       29.91R
LEXINGTON      PTSUNNY   72  66  81 SE5       29.90R
MCCOOK         MOSUNNY   68  65  90 SE5       29.89R
OGALLALA       SUNNY     63  62  98 E7        29.90R
$$

NEZ005>010-023>029-035>040-094-271400-
NORTH CENTRAL NEBRASKA

CITY           SKY/WX    TMP DP  RH WIND       PRES   REMARKS
VALENTINE      SUNNY     68  61  78 E5        29.89R
AINSWORTH      MOSUNNY   68  65  91 E12       29.92R
BROKEN BOW     PTSUNNY   70  65  84 E3        29.91R
O`NEILL        CLOUDY    73  68  84 SE5       29.90S
ORD            CLOUDY    72  66  81 S3        29.90R
THEDFORD       MOSUNNY   66  63  89 CALM      29.91R
$$

NEZ041-046>049-061>064-073>077-083>087-271400-
SOUTH CENTRAL NEBRASKA

CITY           SKY/WX    TMP DP  RH WIND       PRES   REMARKS
GRAND ISLAND   CLOUDY    74  67  78 CALM      29.91R
AURORA         CLOUDY    75  70  85 SE6       29.92R
HASTINGS       CLOUDY    74  64  71 S5        29.90S
HEBRON         CLOUDY    74  68  81 CALM      29.88F
HOLDREGE       PTSUNNY   69  64  86 SE3       29.90S
KEARNEY *      CLOUDY    72  64  78 E6        29.90S
YORK           CLOUDY    73  68  83 S5        29.91F
$$

NEZ011>018-030>034-042>045-271400-
NORTHEAST NEBRASKA

CITY           SKY/WX    TMP DP  RH WIND       PRES   REMARKS
NORFOLK        CLOUDY    78  75  90 E10       29.89R FOG
ALBION         CLOUDY    76  74  91 CALM      29.90S FOG
BLAIR          CLOUDY    78  74  88 S7        29.89S
COLUMBUS *     PTSUNNY   77  72  83 S7        29.89R
FREMONT        PTSUNNY   79  75  89 SE5       29.89S
TEKAMAH        CLOUDY    78  76  93 NE10      29.88F
WAYNE          CLOUDY    74  69  83 NW5       29.90S
$$

NEZ050>053-065>068-078-088>093-271400-
SOUTHEAST NEBRASKA

CITY           SKY/WX    TMP DP  RH WIND       PRES   REMARKS
LINCOLN        CLOUDY    77  71  82 S6        29.91R
OMAHA EPPLEY   CLOUDY    79  76  90 SE12      29.88R
BEATRICE       CLOUDY    74  70  86 E3        29.91F
FALLS CITY     PTSUNNY   78  74  87 S5        29.89R
PLATTSMOUTH    CLOUDY    77  77 100 SE6       29.90R FOG
$$

NEZ044-045-051>053-067-271400-
OMAHA AREA

CITY           SKY/WX    TMP DP  RH WIND       PRES   REMARKS
OMAHA EPPLEY   CLOUDY    79  76  90 SE12      29.88R
BLAIR          CLOUDY    78  74  88 S7        29.89S
FREMONT        PTSUNNY   79  75  89 SE5       29.89S
MILLARD        CLOUDY    79  76  91 SE5       29.88S
OFFUTT AFB     CLOUDY    78  76  94 E6        29.88S
PLATTSMOUTH    CLOUDY    77  77 100 SE6       29.90R FOG
WAHOO          PTSUNNY   77  75  93 N7        29.88R
$$



USA.gov is the U.S. government's official web portal to all federal, state and local government web resources and services.